CAPE
0 0 0 0 0 0 1 49 84 242 449 634 455 776 695 648 745 948 1150 1321 1564 1756 1514 1398 1230 1351 1314 1313 966 1004 362 428 318 718 1412 1688 1853 2147 2710 2537 2876 2839 3042 3351 3422 4046 3368 3288 3418 3642 4168 4093 4362 3408 3125 3214 3859 3959 4322 4670 4852 3426 3037 2716 2094 1887 521 448 1773 644 548 766 1377 1386 774 786 556 436 645 1110 1187 1157 1082 1122 1355
0 0 0 0 0 0 0 31 351 437 616 735 850 495 734 816 898 1004 1155 1258 1469 1566 1384 1399 1420 1298 1284 1367 1518 1126 929 551 376 1046 1378 1600 1739 2259 2368 2351 2812 2797 3035 3439 2976 2902 3422 3583 3255 3464 4100 3875 3905 4006 4342 4288 4396 4426 4378 3388 4825 3916 3536 3119 2003 1382 1369 1209 715 651 471 636 846 510 786 801 411 250 461 745 1036 574 879 989 1051
0 0 0 0 0 0 0 34 327 527 694 787 968 926 692 913 1007 992 1065 1172 1359 1494 1324 1379 1576 1464 1519 1357 1458 1349 1307 1248 550 1040 1362 1752 1916 2220 2455 2380 2724 2686 3015 3202 3216 3866 3726 3526 3784 3828 3577 5099 3983 3475 3431 3606 4009 3430 3650 3182 3373 3422 3515 2774 1747 907 1652 2057 1351 1480 565 768 811 480 533 687 597 500 234 571 722 527 650 857 1054
0 0 0 0 0 0 0 26 234 476 840 971 1185 1045 876 1207 1250 1062 999 1079 1211 1462 2093 1470 1958 1666 1403 1388 1449 1452 1400 2673 1212 992 1346 1727 1691 2033 2562 2315 2730 2660 2913 2989 2891 2996 3614 4180 3738 3401 3437 4677 4363 4104 3738 3681 3656 3788 3790 3712 3614 2573 2712 2864 2831 1724 1866 2067 918 1239 596 1107 1241 1407 1582 1180 587 657 674 8 175 386 495 619 893
0 0 0 0 0 0 0 0 215 359 870 990 1280 1222 1335 1542 1440 1145 1100 1092 1001 1923 2119 2244 2325 2066 2171 2228 2737 1890 1954 1839 1630 1157 1256 1695 1479 2074 2240 2350 2480 2391 2569 2522 3189 3155 3494 3110 3644 3859 4175 4496 4632 4069 4088 4204 3557 3033 3314 3249 3512 3089 2629 3716 3095 2162 2036 2582 2463 1585 785 666 887 1223 1745 1337 2083 197 292 0 336 198 270 176 618
0 0 0 0 0 0 1 8 238 300 755 930 1223 1258 1492 1677 1611 1239 1417 1257 1346 1888 2560 2453 2535 2565 2820 2182 2250 1339 1834 1628 1418 1357 1412 1577 1424 2253 2277 2224 2449 2214 2239 2435 3327 3176 2612 2675 2638 3174 4222 3995 4072 3873 3376 2737 2355 3079 3045 3128 3578 3316 3695 3462 3111 3004 2727 3825 2625 2067 721 718 1088 1531 1402 881 986 2423 432 124 29 18 87 545 549
1 1 3 6 6 0 17 0 208 304 567 910 1117 1238 1466 1754 1885 1402 1823 1436 1403 2409 2864 3108 2700 2822 2802 2606 1993 1798 1794 2000 1539 1539 1374 1386 1448 2343 2278 2095 2151 2052 2010 2580 3084 3121 2901 2924 2691 3431 3963 3865 4515 4518 3448 3879 3341 2680 3788 3743 3566 4673 3865 3294 2715 2860 2676 2233 1908 2053 3478 3359 2262 1649 1308 2370 908 1011 1032 976 120 3 79 220 575
17 17 15 36 33 3 37 4 65 270 462 726 1036 1376 1494 1795 2043 1829 2065 1910 1888 2638 2752 2831 2631 2626 2651 2568 2349 2238 2213 2422 1907 2476 2910 2690 1408 2148 2058 2038 1863 1873 1599 2595 2984 3208 3024 3028 3180 3789 3107 3217 3630 4765 4279 3220 2958 3644 3992 3939 4848 4767 3412 3491 2905 3112 3266 2404 2608 2194 2325 2705 1866 1525 1960 884 1009 1215 1080 1322 444 159 191 137 318
33 54 29 59 73 8 27 18 26 159 236 675 1119 1464 1758 2012 2108 2288 2226 1978 2286 2663 2673 2784 2727 2462 2361 2338 2453 2521 2274 2571 3072 3277 2310 3030 1842 1866 1803 1961 1812 2500 1686 2774 2866 3068 3538 3180 3753 3704 2967 3297 4158 3904 3736 3069 2809 3142 3683 3887 3423 3444 4345 4889 3572 2893 3314 2910 2460 2282 2366 2395 2437 1904 1020 1671 1276 1165 1127 865 398 158 802 624 102
41 65 49 81 90 49 30 27 27 42 150 422 1192 1719 2002 2269 2310 2564 2534 2204 2562 2753 2598 2739 2871 2711 2203 1950 2269 2672 3064 2810 2251 1950 2011 2538 2671 1572 1704 1814 2003 2879 2022 2477 2723 3023 3626 3447 3678 3568 3316 3161 3667 3817 3018 3017 3341 3251 3399 3394 3217 3217 3933 3949 4329 3566 3134 3297 2056 4179 2072 2452 2210 1693 1478 1123 1154 1535 966 1017 405 304 417 610 1300
71 93 80 116 139 117 123 33 29 28 154 275 1670 1960 2238 2518 2494 2598 2848 2482 2624 2721 2489 2580 2645 2325 2163 1758 1721 2306 2744 2538 2281 2216 2274 2236 2674 2859 2592 1578 2471 3079 2241 2585 2828 2662 3177 3642 3622 3615 3521 3797 4326 3009 3478 2846 3098 2920 3339 3479 3309 3151 4131 3476 3753 3333 2805 3179 2578 2117 2103 2066 1848 1491 856 2159 1009 991 1823 1223 668 1744 515 565 595
182 186 183 141 168 96 77 58 78 132 145 210 1790 2014 2289 2534 2546 2650 3060 2592 2534 2670 2525 2309 2545 2137 2348 1859 1378 1544 2648 2414 2262 2274 2149 1991 2930 2801 2927 3040 2873 2878 2415 2364 2496 2538 3205 3240 3747 3202 3863 3935 3819 4164 3209 3578 3085 3337 3345 3785 4185 4647 3431 4485 3614 2804 2926 2723 2658 2223 1975 1443 1461 1344 1013 1012 920 1600 2021 1426 1673 1550 1359 674 833
274 207 212 123 125 196 186 125 134 252 284 282 1592 1804 2116 2444 2568 2714 3101 2750 2429 2637 2517 2291 2338 1979 2065 1876 1320 1824 2262 2145 2488 2273 2263 2089 2922 3070 3054 3078 2754 2599 3260 2300 2040 2063 3337 3023 3209 2862 3861 3560 3604 3556 3360 3354 3130 3895 3784 3949 4689 3902 4644 4035 4758 3881 3434 2806 2140 2096 2318 1774 1551 1434 1306 1392 1642 2139 1156 1010 1472 2863 1966 1714 1616
326 235 276 208 171 276 279 360 347 308 322 422 1245 1639 1873 2236 2568 2648 3100 2963 2417 2548 2380 2323 2200 2012 2027 1714 1988 2066 1851 2120 2682 2478 2444 2460 2715 2902 3000 2965 2337 2442 2601 2279 2185 2262 3233 3214 3485 3152 4013 3509 3910 3505 3625 3615 3406 4436 3639 3412 3140 4337 4692 4297 3478 3720 3187 3057 2756 2519 2297 2072 1765 1594 1631 1493 1351 1464 1634 1585 2236 3255 2226 2083 2129
1404 219 152 154 243 344 352 442 429 355 327 696 1276 1527 1768 2032 2429 2656 2947 3017 2544 2434 2258 2303 2116 2183 2278 1272 2210 2013 1804 1845 2482 2542 2456 2577 2927 2571 2805 2810 2237 2377 2220 2444 2785 2447 3003 3507 3647 3278 4206 4108 4073 4252 4522 4205 3958 4715 4040 3373 3402 3122 3895 4039 3427 3322 3219 2942 2722 2373 2225 1964 2166 1940 1592 1636 1476 1809 1604 2038 2550 2050 1656 2419 2191
1720 941 120 158 321 448 454 448 490 412 399 774 1261 1440 1759 1927 2172 2496 2759 2928 2740 2394 2332 2247 2103 2032 2353 1617 1974 2140 2720 1964 2361 2694 2100 2599 2722 2758 2790 2563 2253 2375 2179 2834 3205 2659 2985 3380 3873 3670 3438 4340 4383 4312 4318 4237 4188 4532 4671 4579 4103 4161 3580 3368 3800 3857 3463 3133 2843 2691 2433 1926 1879 1898 1969 1896 2473 2915 2586 2858 3135 2347 1783 1973 2454
1520 1984 542 110 113 314 496 519 505 478 324 621 1070 1342 1747 1855 2171 2325 2587 2772 2787 2441 2366 2070 2154 1869 2283 1866 2114 2024 2432 2237 2540 2534 2660 2312 2594 2525 2632 2694 2760 3280 2679 2807 2571 2506 2483 3049 3663 3572 3642 3944 4228 3799 3511 3615 3913 3675 4238 3973 3710 2947 3276 3210 3752 3899 3572 3087 2884 2910 2520 2638 2633 2602 2126 2191 2424 2708 2916 3506 2963 3362 2850 2060 2585
1332 1553 2167 806 200 195 525 414 398 310 278 618 1031 1419 1822 1810 2230 2114 2505 2441 2575 2426 2320 2043 1993 1999 2074 1924 2055 1938 2247 1940 2194 2438 2141 2452 2321 2375 2237 2430 2504 2760 2505 2486 2084 2375 2712 3646 3109 3082 3440 3729 3660 3555 3299 3922 3438 3510 3610 3648 3614 3664 3400 4116 3964 4197 3644 3162 3152 2984 2725 2922 2593 2342 1972 2844 3473 3144 3283 3293 3576 2768 2970 2429 2640
1223 1741 1876 2042 285 241 504 423 188 191 450 724 1079 1440 1828 1907 2219 2025 2358 2300 2295 2184 2268 2019 1890 2091 1875 1957 1910 1850 1920 1700 1730 1999 1964 2191 2226 2181 1987 2313 1762 1999 2209 3104 2372 2696 2935 2850 2930 3125 3444 3564 3482 3249 3024 3568 3436 3754 3483 3504 3110 3695 3389 3890 4159 4065 3602 3015 2483 2692 3764 2767 3135 3154 3000 2445 2731 2729 2267 3176 3179 2692 2969 2492 2646
1268 1829 1998 1955 1077 234 430 354 149 166 236 893 1059 1539 1770 1900 2257 2031 2171 2328 2294 1943 2025 1998 1900 1967 1829 1783 1797 1660 1692 1451 1361 1537 1896 1497 1986 2124 1745 2179 1838 2315 1940 2572 2344 2415 2821 2894 3140 3006 3640 3524 3449 3352 3298 3416 3634 3603 3336 3602 3313 4097 3376 3544 3523 3210 2856 2835 2834 2843 2876 2663 2362 3409 2935 2968 3170 3469 2821 2720 2999 3743 3703 4395 3361
1210 1726 1932 1682 1484 174 234 102 173 157 621 924 1109 1330 1583 1782 2029 2124 2034 2246 2179 1997 1953 2030 1817 1716 1867 1678 1698 1584 1816 1703 2215 1833 1767 1703 1770 1814 1682 1820 2028 2018 1906 1979 1966 2016 2216 2670 2552 2626 2452 2812 2873 2962 3004 2931 3430 3375 2969 3241 3132 3250 3628 3437 3432 3193 3304 3150 2805 2766 2960 2942 3118 2820 2836 2806 2591 2206 2881 3161 3278 4237 3661 3774 2968
996 1777 2024 1488 1181 1275 348 613 378 213 1036 807 1056 1176 1323 1532 1757 2016 2001 2086 2059 2030 2020 1969 1855 1656 1744 1662 1771 1515 1628 1478 1696 1801 1532 1828 1816 1888 1771 1618 1846 1886 1913 1754 2562 2185 2222 2181 2254 2250 2264 2170 2638 2804 2810 2886 3240 3214 3181 3320 2992 3336 3143 3283 3271 3374 3350 3120 2944 3265 3302 3371 3312 3073 2967 2632 2332 2271 2115 2189 3204 2508 2534 2974 2978
1407 1807 1601 1105 888 755 715 965 902 897 958 957 1514 1166 1084 1321 1498 1721 1979 1939 1799 1650 1980 1902 1860 1813 1985 1796 1761 1546 1439 1331 1228 1785 1494 1517 1643 1699 1656 1575 1482 1962 1894 1995 2116 2326 2161 2077 2134 2171 1933 2554 2546 2730 2831 2663 3061 3203 3210 2975 2592 3222 3076 3134 3317 3236 3058 2838 2786 2761 3284 3318 3201 2900 2792 2604 2453 2078 2510 1942 1914 2571 2231 2830 3367
1581 1686 1529 1099 581 751 307 556 886 1355 1611 1707 1786 2017 1345 1098 1292 1622 1597 1652 1592 1356 1529 1596 1656 1666 1576 1778 1711 1614 1333 1360 1263 1245 1397 1343 1343 1406 1502 1244 1564 1814 1606 1719 1952 1879 2228 2069 2266 2323 2771 2624 2516 2519 2499 2356 2511 2870 3041 2935 2562 3116 3232 3356 3311 3173 2833 2652 2765 2635 2484 2564 2660 2457 2708 2670 2420 2636 2252 4059 2608 2777 2644 3056 3291
1220 1594 1564 1278 765 432 291 634 1304 2016 2396 2378 2203 2536 2568 1742 2062 1541 1301 1248 1226 1088 1206 1298 1283 1297 1148 1388 1496 1606 1537 1384 1210 1170 932 1050 1166 1314 1484 1229 1172 1203 1488 1374 1866 2056 2931 2826 2676 2620 2488 2484 2586 2461 2420 2450 2384 2639 2832 2821 2640 2779 3178 3326 3248 2961 3749 3131 2592 2153 2153 2316 2156 2028 2297 2812 2447 1999 2029 1699 1800 2089 2035 3267 4159
1242 1423 1472 1249 845 494 836 1602 2125 2379 2342 2117 2047 2174 2219 2131 2375 2748 2360 2150 1254 1994 1069 1165 1056 1200 1007 1040 1189 1312 1426 1368 1243 1105 914 749 676 1134 1570 1520 1371 1322 1371 1407 1839 1856 2923 2523 2414 2430 2463 2228 2301 2538 2561 2729 2583 2331 2657 2718 2720 2989 2734 2347 2420 2580 2684 2902 3040 2996 2944 2859 2665 2700 2230 1991 2181 1920 2941 2244 2050 2095 2263 2850 2985
1352 1310 1154 1076 1952 1475 2264 2119 1833 2056 1921 1844 1878 1758 1703 1754 2263 2246 2198 1747 1682 2690 2071 1023 1080 950 1066 1059 970 1064 1101 1148 1124 977 708 607 582 491 1232 1682 1645 1532 1459 1580 1760 1698 2302 2386 2146 2215 2420 2526 2424 2654 2768 2828 2868 2647 2268 2646 2706 2779 2918 2692 2551 2476 2597 2634 2670 2612 2584 2494 2315 2242 2245 2234 2089 2174 1871 1566 2001 2376 3022 2821 2550
1500 1310 1042 1202 1514 1660 2076 1954 1514 1532 1618 1884 1972 1610 1279 1643 1822 1851 1482 1580 2027 2090 2731 2770 2012 1833 1753 1839 1525 1466 1313 778 988 860 685 504 379 306 401 1501 1610 1455 1496 1424 1480 1539 1763 2115 2096 2030 2190 2462 2826 2867 2790 2980 3070 2825 2624 2468 2445 2548 2827 2903 2774 2614 2477 2546 2502 2375 2165 1927 2040 2076 1915 1933 1985 1926 2122 1985 1869 1752 2795 3105 2964
1534 1404 1132 1143 1446 1302 1589 1805 2347 1988 2029 1914 1525 1206 1076 913 918 1274 1108 1430 1885 2065 2100 2672 2551 2015 2006 1838 1903 1955 2785 3674 2823 2102 1914 2131 2557 1259 905 974 1333 1514 1412 1371 1284 1329 1478 1661 1764 1929 2222 2444 2574 2708 2740 2941 3053 2925 2746 2580 2462 2417 2559 2458 2358 2270 2166 2136 2418 2471 2260 1947 1814 3686 4085 4248 3529 2639 1976 1864 2718 2398 2704 2339 2455
1266 1329 1232 1041 1121 1199 1439 2031 1848 1735 1759 1617 1587 1768 1784 1585 1305 1054 1288 1461 1781 2027 1878 2223 2362 2110 1179 889 1889 3199 3251 2596 2714 3164 3318 3200 2911 2651 1891 1491 1694 1505 1322 1270 1314 1316 1317 1388 1432 1661 1987 2415 2202 2019 1990 2120 2800 2633 2394 2105 2023 2191 2284 2409 2298 2144 2051 2124 2161 2138 2056 2485 2208 2014 2044 2842 3126 3307 3047 1939 1543 1717 1806 2177 2549
1135 1241 1301 1214 1037 1204 1190 1419 1592 1560 1623 1482 1431 1582 1660 1516 1542 1546 1570 1638 1548 1728 1941 1938 1934 1759 1319 1073 1422 2374 2836 2201 2187 2281 2301 2588 2923 3025 2720 2173 1614 1410 1348 1229 1270 1272 1205 1063 997 1308 1560 1816 1843 1734 1583 1259 1907 2473 2542 1854 1538 1624 2156 2519 2659 2454 2201 2395 2444 2149 1939 2236 3421 3295 2905 2722 2654 2861 3466 2476 2001 2147 2255 1588 1446
819 845 916 933 907 1031 1128 1174 1269 1062 1436 1591 1628 1710 1464 1374 1452 1808 1634 1726 1504 1723 1726 1722 1693 1428 1622 1315 1479 1895 2677 2270 1836 1860 1917 1920 2145 2389 2692 2414 2294 1673 1306 1560 1149 928 910 878 1095 1070 1179 1341 1449 1516 1271 1161 1372 1744 1901 1817 1681 1590 2472 2378 2319 2186 2136 2192 2026 1808 1545 1143 1559 2107 2239 2964 3307 3729 3336 2826 2111 1442 1658 2268 1712
733 621 528 647 612 1018 1052 980 831 991 966 995 1023 1335 1459 1390 1498 1917 1845 1598 1466 1615 1675 1554 1485 1490 1570 1887 1876 1989 2280 2334 2041 1955 1697 1747 1880 1918 2039 2258 2329 1811 1504 1421 1696 1582 1367 1034 733 740 841 930 918 764 808 986 1134 1074 1093 1354 1511 1714 1864 1806 1908 1900 1771 1678 1644 1624 1673 1537 1072 1267 2570 1627 1490 1712 2664 2431 1898 1912 2021 1833 1404
571 578 470 532 734 743 789 827 815 899 850 735 685 686 624 956 1059 1051 1003 813 1208 1734 1538 1249 962 948 884 1408 1666 1779 1973 2058 2159 2072 1899 1655 1732 1919 1882 1839 2631 1842 1595 1453 1541 1417 1082 1184 1515 1336 984 607 573 623 726 783 823 897 618 650 1052 1634 1586 1042 498 755 1189 1228 1423 1867 1846 2001 2597 2469 2382 2974 3037 2612 2949 3017 2439 1885 1499 2038 2866
322 505 694 632 743 577 696 841 812 642 624 705 661 624 739 656 736 862 1028 1056 1009 1328 1378 1304 1230 998 1101 1517 1822 1645 1519 1418 1561 1627 1914 1857 1719 1684 1808 2265 2141 1666 1674 1628 1668 1918 1509 1119 930 882 863 834 686 676 679 603 771 887 752 461 619 1152 1275 1001 1094 933 1385 1039 746 870 1187 2089 2190 1678 1851 2324 2126 2409 3396 3489 3452 3309 3068 2683 2628
387 343 363 435 624 741 768 909 773 679 637 552 616 590 616 632 582 461 543 705 905 1121 1008 1118 929 902 1147 1286 1312 1445 1527 1397 1286 1267 1258 1498 1655 1845 1796 1752 1721 1670 2036 2428 2248 2065 1712 1405 1178 943 882 878 842 854 821 785 498 321 379 393 225 806 1065 892 874 1268 1051 1471 1311 1231 1420 1997 2262 1222 986 1220 1692 2662 3068 3125 2684 2918 3102 3202 2958
380 355 372 406 492 500 503 620 723 753 764 719 691 697 688 691 681 633 568 468 675 915 958 889 917 960 920 973 990 990 1063 1109 1078 985 936 939 1020 1043 1137 1470 1487 1474 1629 1877 1978 1707 1469 1330 1223 1148 1120 1070 952 854 878 955 929 438 504 1506 1675 1512 1481 1501 1875 1620 1404 1845 2124 1367 1103 1602 1565 1089 874 989 1324 2378 2039 2743 2982 3030 2918 2563 2333
210 23 0 255 288 372 377 386 420 457 586 600 609 586 555 596 576 523 464 534 592 615 572 650 696 805 835 898 958 952 901 878 846 857 807 821 787 772 746 922 1057 1018 1214 1205 1582 1526 1403 1248 1224 1149 988 927 1026 983 827 626 526 450 633 1701 2368 2367 2411 2216 2072 1897 1582 1437 2268 2927 1718 792 693 634 658 691 815 1229 1338 1504 1620 1710 1788 1839 1759
210 11 0 148 254 240 147 263 283 357 349 381 377 360 357 342 346 362 381 425 522 564 497 483 586 606 630 728 813 800 839 848 853 848 802 756 716 750 751 764 752 748 882 1092 1334 1354 1242 1176 1153 1052 1229 815 824 841 825 651 444 546 951 1725 2426 2333 2389 2226 1927 1731 1604 1375 1315 1487 1206 946 835 727 684 778 876 986 1121 1214 1294 1337 1336 1569 1341
179 126 5 0 0 0 0 190 317 305 241 306 359 391 412 396 412 426 454 499 542 550 480 483 498 568 591 570 138 433 447 575 682 715 698 735 729 753 799 807 761 789 814 776 832 926 1002 974 926 890 839 778 780 786 724 600 567 673 939 1608 1918 1718 1854 1919 1806 1602 1626 1344 1228 1129 1036 955 896 827 749 827 966 1104 1238 1328 1296 1204 1124 1497 1002
118 149 1 0 0 0 0 0 88 235 310 303 256 243 243 219 247 316 366 375 456 428 375 418 459 445 407 379 389 322 343 451 490 500 504 456 479 516 605 665 665 632 669 637 614 684 676 698 724 701 679 664 681 718 720 612 576 778 954 1142 1195 1280 1433 1519 1566 1462 1341 1248 1160 1078 1039 969 945 927 905 828 832 878 936 967 994 1004 982 921 878
53 119 132 106 103 24 41 93 207 190 42 190 202 184 180 174 180 225 307 353 386 390 357 331 328 285 284 299 361 468 472 429 362 338 332 366 475 646 441 504 506 439 398 413 402 389 378 360 312 391 412 442 426 570 471 483 588 785 934 1044 1135 1223 1246 1272 1260 1217 1120 1102 1037 962 913 832 774 830 871 889 873 847 817 779 780 755 716 694 660
0 22 0 0 0 0 0 0 90 150 146 89 97 187 221 248 240 247 258 322 358 376 359 327 272 276 281 298 341 400 429 337 259 177 169 106 264 536 389 513 367 377 329 285 232 228 268 277 246 170 48 181 332 430 460 436 530 692 810 927 1001 1023 1009 970 876 948 1107 848 830 822 764 709 675 657 654 653 654 656 676 699 695 696 636 575 513
0 0 0 0 0 0 0 0 0 0 0 0 116 153 156 153 217 219 272 297 326 344 340 318 299 302 302 280 286 336 323 107 114 59 42 65 12 247 261 276 448 340 165 96 59 0 0 0 0 2 0 0 89 353 456 494 390 582 664 691 668 577 539 575 608 539 594 638 651 681 646 633 571 529 448 400 379 392 398 388 384 376 347 315 296
0 0 0 0 0 0 0 0 0 0 0 0 0 0 18 120 142 173 229 249 263 251 81 276 283 285 286 287 226 210 51 42 235 210 8 98 118 155 228 229 17 197 211 147 74 142 183 161 109 14 19 2 57 264 452 427 383 462 422 391 352 310 328 343 369 408 432 482 514 516 533 470 366 219 181 133 136 113 193 185 124 28 0 174 199
0 0 0 0 0 0 0 0 0 0 0 0 0 0 0 0 0 0 0 113 201 247 247 256 254 217 201 202 241 96 0 0 0 0 0 157 236 195 224 190 162 113 112 157 153 123 91 117 168 24 6 48 255 269 372 144 270 348 341 302 294 281 238 193 177 183 221 265 276 262 221 167 117 62 29 27 126 203 296 56 20 104 180 9 180
0 0 0 0 0 0 0 0 0 0 0 0 0 0 0 0 0 0 0 0 0 0 25 0 220 213 170 108 204 200 187 100 0 0 0 18 101 156 164 194 189 165 166 76 136 93 148 169 181 34 17 48 226 278 300 298 335 336 280 245 230 196 159 143 140 144 152 163 134 112 92 75 58 52 39 28 26 39 46 56 62 165 240 79 192
0 0 0 0 0 0 0 0 0 0 0 0 0 0 0 0 0 0 0 0 0 0 0 0 0 0 94 1 2 58 95 145 143 0 0 0 0 0 0 0 0 0 150 85 18 111 93 63 31 3 1 9 106 255 269 256 219 204 195 210 204 189 190 191 186 149 114 88 50 26 12 0 0 20 54 75 104 154 115 111 149 0 0 0 0
0 0 0 0 0 0 0 0 0 0 0 0 0 0 0 0 0 0 0 0 0 0 0 0 0 0 0 0 1 0 61 45 4 0 0 0 0 0 0 0 0 0 128 88 0 0 0 0 0 0 0 0 0 106 196 179 186 185 188 177 164 140 119 82 4 0 0 0 0 0 0 0 0 5 52 156 120 197 302 4 0 0 0 0 0
0 0 0 0 0 0 0 0 0 0 0 0 0 0 0 0 0 0 0 0 0 0 0 0 0 0 0 0 0 0 0 0 0 23 0 0 0 0 0 0 0 0 0 0 0 0 0 0 0 0 0 0 0 0 0 0 0 0 0 0 0 0 0 0 0 0 0 0 0 0 0 0 6 74 104 160 123 297 0 0 0 0 0 0 0
0 0 0 0 0 0 0 0 0 0 0 0 0 0 0 0 0 0 0 0 0 0 0 0 0 0 0 0 0 0 0 0 0 0 0 5 0 0 0 0 0 0 0 0 0 0 0 0 0 0 0 0 0 0 0 0 0 0 0 0 0 0 0 0 0 0 0 0 0 0 0 0 0 128 10 0 0 0 0 0 0 0 0 0 0
Wind_Speed
nan nan nan nan nan nan nan nan nan 10 9 8 7 5 5 5 4 4 6 7 9 9 9 9 10 10 9 10 11 10 10 11 11 11 11 12 13 14 14 13 13 14 14 13 12 10 9 8 8 9 8 8 8 8 9 11 10 9 9 9 9 9 10 10 11 7 4 5 7 8 10 10 11 11 11 12 11 10 6 7 6 6 6 6 6
nan nan nan nan nan nan nan nan 12 13 10 10 8 6 5 6 5 3 4 7 9 10 10 10 10 10 9 10 10 9 8 9 10 10 10 11 12 12 12 13 13 12 12 11 10 9 7 7 7 8 7 6 7 7 7 9 9 8 7 7 7 8 8 10 12 4 6 7 8 9 11 12 12 11 11 11 11 8 8 3 5 8 7 7 7
nan nan nan nan nan nan nan nan 14 14 11 11 9 7 5 5 4 2 3 6 9 10 11 11 10 9 8 9 8 9 9 9 8 8 8 9 10 11 10 11 11 11 12 10 9 8 6 7 7 7 7 6 6 8 7 7 8 8 8 7 10 8 8 10 8 3 6 8 7 7 10 10 11 9 10 11 11 9 8 5 5 7 8 8 8
nan nan nan nan nan nan nan nan 13 13 11 11 9 8 5 4 4 4 3 5 9 11 10 10 8 7 6 7 8 9 9 8 4 4 5 6 8 8 8 9 10 10 10 10 7 6 5 5 5 6 6 6 4 5 6 7 8 8 8 5 3 7 7 8 7 4 4 4 6 7 8 6 8 8 9 11 9 13 11 nan 2 7 8 7 8
nan nan nan nan nan nan nan nan 12 12 12 11 9 8 6 6 5 5 2 4 8 9 7 6 5 5 7 7 7 8 8 7 5 4 5 6 7 7 7 7 8 8 9 9 6 5 5 4 4 6 5 6 5 5 6 7 7 7 5 4 5 2 6 7 7 5 6 6 5 5 7 6 8 10 8 8 6 2 4 nan 6 7 7 9 9
nan nan nan nan nan nan nan nan 12 11 11 10 10 7 7 7 6 5 1 2 5 5 3 3 4 5 6 7 7 7 7 7 7 6 6 6 7 6 5 7 8 7 8 8 5 5 5 5 5 5 6 6 6 6 6 6 8 8 6 4 5 3 3 5 8 8 8 5 4 5 6 6 5 7 3 7 10 6 6 3 nan nan nan 9 8
nan nan nan nan nan nan nan nan 13 10 9 9 9 8 8 8 7 5 3 1 2 3 1 1 2 5 6 6 7 7 7 8 8 7 6 7 5 4 5 7 8 6 8 5 4 5 5 6 5 5 6 5 6 6 7 7 8 7 6 4 5 4 2 4 6 8 9 6 4 5 5 4 4 2 5 4 5 8 4 4 5 nan nan 2 5
nan nan nan nan nan nan nan nan nan 10 8 7 8 10 9 8 7 6 5 4 3 3 2 1 0 3 5 4 5 6 6 6 6 6 6 6 4 4 5 7 8 6 6 4 3 4 5 5 5 5 5 5 5 5 5 5 6 6 6 5 3 3 2 3 6 6 4 7 6 3 2 2 3 5 4 4 4 2 5 5 3 2 3 3 4
nan nan nan nan nan nan nan nan nan 11 8 6 9 9 9 10 8 7 6 5 5 4 3 3 1 2 3 2 2 4 3 4 5 5 5 5 2 4 5 6 7 6 4 3 3 4 5 5 5 5 5 5 6 6 4 4 5 6 6 3 2 2 3 4 4 8 5 5 5 5 2 1 4 4 2 3 3 1 3 2 2 3 3 2 1
nan nan nan nan nan nan nan nan nan nan 9 7 11 10 10 10 9 7 6 6 6 5 5 4 2 1 1 1 1 1 2 3 3 3 4 5 2 4 5 5 7 4 3 3 4 4 5 5 5 5 6 5 6 6 4 5 6 6 7 5 3 3 4 3 5 7 7 7 2 2 2 3 1 1 3 2 1 4 4 3 4 4 2 3 4
nan nan nan 16 18 18 15 nan nan nan 10 9 12 11 11 10 9 8 6 6 6 5 5 4 3 2 2 2 2 2 1 0 1 3 3 4 2 2 3 4 5 5 3 3 3 4 5 6 6 6 7 6 5 5 5 4 7 5 4 3 4 4 5 4 4 6 6 6 6 2 4 1 3 3 4 1 3 4 1 2 3 2 5 3 4
13 15 15 16 18 nan nan nan nan 13 12 10 12 12 11 11 10 8 7 7 6 6 6 5 4 3 3 3 3 2 2 1 1 1 1 1 2 2 3 2 4 5 4 3 3 3 4 5 6 5 5 5 4 4 5 5 5 6 4 5 6 6 6 5 5 6 8 8 5 4 2 2 4 3 4 5 3 3 5 4 2 3 4 6 8
12 15 15 16 16 16 15 15 12 14 14 11 15 13 12 11 11 10 6 6 6 7 7 6 5 2 3 3 2 2 3 2 1 1 0 1 1 1 2 2 3 4 5 3 4 3 3 4 4 3 3 4 3 3 3 3 4 5 4 6 5 5 6 5 4 6 8 7 8 7 3 4 6 5 3 4 4 5 6 5 5 6 7 5 5
14 14 14 14 15 15 15 15 14 16 15 13 16 15 13 11 11 11 7 6 6 6 7 7 5 3 3 4 3 2 3 3 2 1 0 1 1 1 1 2 2 3 4 3 4 3 2 3 2 2 2 2 2 2 2 3 3 4 3 3 4 5 4 5 6 6 6 8 7 7 7 5 8 4 3 4 4 4 4 5 5 4 5 4 5
20 14 13 13 14 15 16 16 16 16 15 15 17 16 15 14 12 12 9 7 6 6 7 7 5 4 5 4 5 2 2 2 3 2 1 1 1 2 1 1 1 4 3 4 4 3 2 1 1 2 1 2 2 2 1 1 1 3 2 3 4 5 4 3 4 4 6 7 6 5 4 3 5 5 3 5 6 6 5 6 4 2 0 2 3
21 19 12 13 15 16 16 15 15 15 15 16 17 17 17 16 15 13 10 8 8 7 8 8 7 6 6 6 5 4 3 2 3 2 2 2 3 3 2 0 1 2 4 3 3 1 1 1 1 2 2 2 2 1 1 1 1 2 1 2 3 3 2 1 2 1 3 5 5 5 3 4 6 4 5 6 6 5 5 6 5 6 5 3 3
16 20 16 13 15 16 16 14 14 14 14 16 17 18 19 18 17 15 12 10 9 8 9 9 10 9 8 7 7 6 6 4 3 2 3 2 3 3 1 1 2 1 1 2 2 2 1 1 2 2 2 2 2 2 2 2 3 2 2 2 2 1 3 2 1 1 1 2 2 2 2 3 2 2 2 6 7 7 7 5 6 9 10 8 6
10 17 20 17 16 16 18 16 15 16 16 17 16 18 20 19 19 18 15 13 11 10 9 10 11 12 11 10 8 8 8 5 5 4 3 4 4 4 2 2 3 3 2 2 0 1 1 2 2 2 2 1 3 2 2 2 2 1 1 2 2 1 2 1 0 0 1 0 1 1 1 2 2 3 5 8 5 5 5 6 8 8 11 11 10
7 11 14 18 16 18 19 18 19 20 20 19 17 19 21 20 19 19 18 16 14 12 11 11 12 12 12 12 10 9 9 7 6 6 6 6 5 5 4 4 4 3 4 4 2 2 1 1 1 2 0 1 1 1 2 2 2 1 1 1 2 2 2 1 0 1 1 1 1 1 1 3 3 3 3 3 3 4 4 5 7 8 7 10 11
9 11 14 17 18 19 21 21 22 23 24 22 19 19 21 21 20 19 19 18 17 15 15 13 12 13 13 13 12 11 10 8 9 8 8 7 7 8 7 7 5 5 4 5 4 3 3 0 1 1 1 1 1 2 2 3 2 1 1 1 0 2 2 2 1 1 0 1 0 0 1 2 3 5 4 4 3 1 2 2 4 6 6 7 9
11 14 16 18 22 20 24 23 23 26 27 24 21 19 21 20 19 19 19 18 17 17 18 16 14 14 16 14 13 11 9 9 10 9 10 9 10 9 9 9 9 6 6 5 4 3 3 2 2 2 3 2 2 2 2 3 3 2 0 1 1 1 2 1 1 1 1 1 2 1 2 3 4 4 4 4 5 4 2 2 4 7 8 8 9
12 18 21 25 28 26 25 24 25 26 27 24 22 20 21 20 18 18 17 16 16 16 19 18 16 15 17 16 15 13 11 11 12 11 12 11 11 11 11 11 9 8 7 6 5 4 4 3 4 3 2 3 2 3 3 4 3 2 1 1 1 3 1 1 2 2 2 1 2 2 2 3 4 3 3 3 2 3 2 3 5 6 7 6 6
21 23 28 33 32 32 36 28 23 25 27 26 24 21 20 20 18 18 17 15 13 13 18 18 17 15 17 18 17 16 14 12 11 12 11 12 12 11 12 12 10 10 9 7 6 6 6 5 5 5 4 4 3 3 4 4 4 4 3 3 2 3 3 2 2 2 1 1 2 2 2 3 3 3 2 1 2 2 6 7 4 4 5 6 7
31 27 27 30 28 26 29 29 22 24 27 29 28 25 21 20 20 18 16 14 12 13 15 16 16 15 16 17 18 18 15 13 11 13 12 12 12 12 12 12 13 14 12 10 9 8 8 7 7 6 6 6 6 5 5 5 6 5 5 5 4 5 4 4 4 2 2 2 2 2 2 2 3 3 3 2 2 3 6 6 5 4 4 4 6
18 23 25 24 20 19 20 20 15 20 24 27 30 29 26 22 23 20 17 15 13 15 14 14 15 15 15 17 16 17 17 14 13 13 12 13 13 13 13 12 13 14 13 12 12 13 13 11 9 8 7 8 7 7 6 6 7 8 7 7 6 7 7 6 5 4 3 4 4 4 2 3 3 3 4 4 4 4 4 2 3 4 3 4 6
28 31 29 24 22 21 19 18 19 21 21 22 25 28 28 27 27 26 23 21 16 18 14 15 15 16 15 16 16 17 17 15 13 13 13 14 14 16 16 15 14 14 16 14 14 14 15 12 10 10 10 9 9 9 8 7 8 10 9 9 9 9 8 7 7 6 4 4 5 6 6 7 7 6 5 4 4 3 5 5 4 4 4 4 3
29 26 22 21 18 19 21 19 20 23 22 23 23 25 27 28 30 28 27 26 24 23 21 18 18 17 16 16 17 17 18 16 15 14 14 15 15 15 17 17 17 16 18 17 16 15 16 14 12 12 11 11 10 10 10 10 10 10 11 12 12 12 10 10 9 7 6 7 7 8 8 8 7 7 7 5 5 5 4 4 5 4 4 4 4
28 27 26 25 25 26 23 22 23 24 25 27 27 29 29 28 28 28 28 28 26 25 27 24 23 22 20 20 20 22 22 19 17 15 15 16 16 15 17 18 19 19 19 18 17 16 16 16 14 13 13 14 13 12 12 12 13 12 13 13 14 14 13 14 14 13 12 11 10 10 9 10 11 10 8 7 8 7 8 6 5 6 9 10 9
25 24 28 29 26 27 33 30 28 28 29 28 27 26 27 29 28 29 31 30 28 27 29 31 28 26 25 24 25 25 25 25 22 21 20 21 22 21 21 20 18 21 20 19 18 18 17 16 16 15 14 15 15 14 14 14 14 15 16 16 15 14 15 15 15 14 13 12 12 11 11 11 12 10 9 9 8 9 9 8 9 12 12 13 13
23 23 25 26 26 29 31 37 35 33 33 33 30 28 27 27 27 29 30 29 28 28 30 31 33 36 37 37 34 30 29 28 29 26 25 26 26 24 24 24 22 21 21 20 20 19 19 18 17 17 16 17 22 24 25 19 15 17 18 19 19 19 18 17 17 16 15 14 13 12 11 7 6 6 5 6 6 5 8 11 12 13 14 15 16
30 28 25 27 29 28 32 36 36 38 41 41 39 36 35 34 32 32 31 28 27 27 29 32 37 38 35 31 28 25 25 26 25 24 25 27 26 25 25 24 23 24 25 26 26 25 25 24 24 23 25 25 21 16 17 16 14 12 20 19 19 19 18 18 19 20 18 17 17 16 15 14 12 9 10 8 8 6 9 12 15 17 17 17 16
29 28 28 31 30 28 30 30 31 34 35 35 33 31 34 35 34 33 29 26 25 23 23 27 34 38 37 33 30 25 20 19 23 23 24 25 26 26 26 24 24 25 25 25 24 23 23 22 23 24 26 24 21 18 16 24 23 21 20 21 21 20 20 21 21 20 20 19 18 16 16 18 20 20 18 17 15 10 10 13 15 17 17 17 18
34 31 30 32 30 29 31 34 34 34 35 35 34 33 33 31 25 21 21 20 18 17 17 19 25 30 29 24 23 20 16 19 24 25 24 25 26 26 26 25 25 24 26 27 26 25 24 23 24 26 26 23 20 21 21 21 21 22 26 24 23 22 22 22 23 22 22 20 19 19 19 22 19 15 21 20 18 16 12 11 12 13 15 17 18
32 32 32 37 35 32 32 35 33 30 30 34 33 32 33 33 30 30 29 25 21 18 19 19 20 23 23 21 19 19 18 20 24 26 28 27 27 27 25 25 27 28 28 27 26 26 26 27 28 26 25 24 25 26 23 24 23 23 25 29 27 26 25 25 27 29 28 26 26 25 26 27 26 27 26 25 23 21 19 19 18 18 18 17 18
32 34 35 35 32 28 28 30 29 26 26 28 29 28 28 31 30 32 32 30 27 23 22 21 20 20 20 19 20 21 23 28 32 31 30 29 29 30 30 31 31 31 31 29 28 28 28 28 30 30 29 29 28 28 26 30 31 30 28 30 30 28 29 32 34 34 33 32 30 30 28 29 28 28 28 27 27 25 24 22 21 21 21 21 21
33 32 29 29 29 27 26 27 29 30 27 27 28 28 31 30 28 29 28 27 25 21 18 17 19 19 18 18 19 22 25 29 32 33 33 33 34 34 34 34 34 33 33 34 34 34 33 31 31 32 32 32 32 34 33 36 36 32 29 32 33 31 32 33 35 39 36 33 32 31 31 30 30 31 30 30 28 26 25 26 26 25 23 23 24
42 40 35 29 26 28 28 25 27 30 29 26 24 26 30 28 26 25 25 25 24 22 21 19 18 18 19 17 17 18 20 22 24 27 30 32 35 37 38 36 35 35 36 37 36 37 37 37 35 34 34 34 35 35 34 34 36 34 33 32 35 35 34 35 39 39 38 36 34 33 34 34 33 32 31 31 30 30 29 28 26 26 26 26 26
44 nan nan 44 37 33 33 32 33 34 34 32 29 28 29 31 29 27 28 28 27 24 24 23 22 21 20 19 18 17 17 17 18 20 22 24 26 28 30 31 33 34 36 39 40 41 40 40 38 38 38 38 36 34 32 33 35 36 33 32 31 34 35 37 37 38 39 38 36 38 39 37 36 35 34 34 33 32 31 30 30 28 28 27 30
42 nan nan 46 40 35 37 38 38 40 40 39 37 38 40 41 40 39 36 35 32 29 27 27 25 25 25 24 22 24 24 23 22 21 20 19 19 19 22 24 28 31 34 37 39 41 42 41 42 42 41 41 36 32 32 33 35 36 34 32 30 30 33 35 36 37 38 38 39 41 43 40 38 36 37 38 37 35 32 30 29 29 29 28 30
39 41 nan nan nan nan nan 40 37 36 37 41 44 46 48 48 47 45 41 36 33 32 31 31 29 27 27 27 26 27 27 26 25 25 25 24 23 22 23 25 26 27 28 30 31 32 32 33 33 34 37 33 31 30 31 33 36 39 37 36 35 35 34 35 37 37 36 35 35 36 39 39 39 38 38 38 38 35 33 31 30 30 29 28 30
38 38 nan nan nan nan nan nan nan 42 42 43 44 47 48 48 47 45 42 38 34 33 34 35 34 33 32 31 28 28 30 28 27 26 27 27 25 27 28 29 29 29 29 28 27 28 28 26 23 24 26 27 27 29 29 31 37 43 48 48 43 38 32 29 29 31 33 34 33 34 34 35 36 36 35 35 36 36 33 32 31 30 30 31 29
nan 40 37 39 42 nan nan nan 47 46 nan 46 46 47 47 47 45 45 43 39 37 35 35 36 37 36 36 34 32 30 32 31 30 29 28 27 28 29 29 28 29 29 29 30 31 32 33 33 31 30 29 27 26 29 30 33 36 43 47 43 33 24 18 15 18 19 22 27 30 32 34 33 32 33 32 32 33 35 34 32 30 28 33 34 31
nan nan nan nan nan nan nan nan nan 45 44 nan nan 50 49 48 48 45 42 39 40 40 38 37 37 37 37 36 34 34 35 35 33 32 31 30 29 31 30 27 27 28 30 32 33 33 34 33 33 32 nan 28 25 26 31 30 30 34 34 30 24 19 17 18 17 17 19 21 20 22 26 30 28 29 31 32 33 33 32 32 28 29 33 32 30
nan nan nan nan nan nan nan nan nan nan nan nan 47 48 48 48 47 43 44 43 40 40 41 40 38 37 37 37 36 37 38 35 36 nan nan nan nan 33 33 32 31 32 33 nan nan nan nan nan nan nan nan nan nan 21 26 27 26 30 29 27 25 25 24 19 19 22 22 22 21 20 18 16 16 18 21 25 28 29 29 26 27 29 32 31 34
nan nan nan nan nan nan nan nan nan nan nan nan nan nan nan 48 44 43 44 44 44 44 nan 41 41 40 38 37 38 39 nan nan 44 44 nan nan 40 40 39 37 nan 35 34 35 nan 36 35 34 33 nan nan nan nan 27 30 32 35 34 36 37 34 32 30 26 25 24 24 24 24 21 17 13 11 11 12 16 19 21 21 23 23 nan nan 32 32
nan nan nan nan nan nan nan nan nan nan nan nan nan nan nan nan nan nan nan 43 44 43 45 45 43 41 39 38 39 nan nan nan nan nan nan 42 44 42 40 39 40 40 40 37 35 36 nan 35 35 nan nan nan 39 37 36 35 34 36 36 38 38 37 35 33 31 28 29 29 28 23 20 17 16 nan nan nan 20 22 23 nan nan 24 28 nan 30
nan nan nan nan nan nan nan nan nan nan nan nan nan nan nan nan nan nan nan nan nan nan nan nan 44 46 44 39 38 38 42 44 nan nan nan nan 44 44 43 42 43 42 42 nan 42 nan 37 35 38 nan nan nan 40 40 38 37 37 36 35 33 32 30 31 31 29 29 29 27 24 23 nan nan nan nan nan nan nan nan nan nan nan 23 25 nan 30
nan nan nan nan nan nan nan nan nan nan nan nan nan nan nan nan nan nan nan nan nan nan nan nan nan nan nan nan nan nan nan 43 45 nan nan nan nan nan nan nan nan nan 39 nan nan 43 nan nan nan nan nan nan 42 41 39 36 35 34 32 31 30 29 29 28 28 28 26 nan nan nan nan nan nan nan nan nan 24 22 24 24 24 nan nan nan nan
nan nan nan nan nan nan nan nan nan nan nan nan nan nan nan nan nan nan nan nan nan nan nan nan nan nan nan nan nan nan nan nan nan nan nan nan nan nan nan nan nan nan 41 nan nan nan nan nan nan nan nan nan nan 41 38 35 34 33 33 32 33 32 29 nan nan nan nan nan nan nan nan nan nan nan nan 22 22 21 25 nan nan nan nan nan nan
nan nan nan nan nan nan nan nan nan nan nan nan nan nan nan nan nan nan nan nan nan nan nan nan nan nan nan nan nan nan nan nan nan nan nan nan nan nan nan nan nan nan nan nan nan nan nan nan nan nan nan nan nan nan nan nan nan nan nan nan nan nan nan nan nan nan nan nan nan nan nan nan nan nan 21 20 23 28 nan nan nan nan nan nan nan
nan nan nan nan nan nan nan nan nan nan nan nan nan nan nan nan nan nan nan nan nan nan nan nan nan nan nan nan nan nan nan nan nan nan nan nan nan nan nan nan nan nan nan nan nan nan nan nan nan nan nan nan nan nan nan nan nan nan nan nan nan nan nan nan nan nan nan nan nan nan nan nan nan 25 nan nan nan nan nan nan nan nan nan nan nan
Wind_Direction
nan nan nan nan nan nan nan nan nan 267 271 276 290 293 306 330 355 40 55 64 73 77 76 71 73 84 91 91 84 89 66 73 68 74 74 78 81 89 94 95 97 98 103 105 108 106 103 102 101 97 93 97 103 102 108 112 103 96 102 105 103 107 97 93 87 67 76 77 102 99 95 102 94 90 97 99 96 88 78 32 48 51 56 44 28
nan nan nan nan nan nan nan nan 258 270 270 275 281 293 298 315 328 13 51 60 76 77 75 80 85 87 86 94 103 99 77 72 74 71 67 69 76 86 90 92 96 96 99 99 99 99 104 106 102 96 95 98 106 103 105 113 118 105 105 122 97 95 92 93 95 73 112 85 87 97 104 109 99 93 97 97 95 99 90 86 27 34 39 30 25
nan nan nan nan nan nan nan nan 259 269 269 272 280 285 291 291 298 337 42 57 74 75 74 85 83 80 91 93 103 108 107 99 78 69 64 65 69 76 80 83 92 95 96 100 102 107 101 101 104 108 116 113 119 120 117 113 113 112 107 102 115 107 87 86 69 16 77 102 88 103 105 104 110 120 116 104 93 91 87 81 16 26 20 16 17
nan nan nan nan nan nan nan nan 258 264 262 263 268 283 275 259 284 308 17 62 73 73 79 82 88 86 80 74 84 107 105 124 104 84 80 73 63 78 75 77 85 90 94 96 105 97 102 108 108 103 117 120 94 106 116 110 110 107 103 106 106 132 134 104 110 46 47 91 118 96 100 102 115 109 96 88 71 64 63 nan 9 9 6 8 7
nan nan nan nan nan nan nan nan 259 261 262 269 268 273 260 277 284 308 356 61 79 80 78 93 93 106 101 95 104 118 127 123 129 104 82 81 80 90 70 77 83 83 88 93 93 93 113 103 97 100 101 97 95 101 102 106 110 101 98 125 122 99 140 110 101 108 67 46 53 110 114 120 98 95 110 106 127 169 57 nan 338 357 12 15 8
nan nan nan nan nan nan nan nan 260 259 265 269 272 271 264 268 275 294 258 92 86 95 95 82 92 81 83 75 79 85 91 87 87 77 81 77 77 91 82 81 86 87 84 89 85 98 107 104 96 117 114 111 112 110 116 130 118 114 100 74 122 120 97 134 133 129 126 76 58 69 51 72 94 103 163 122 128 126 180 130 nan nan nan 16 17
nan nan nan nan nan nan nan nan 262 260 263 265 274 272 269 266 271 289 242 210 140 143 146 137 100 87 72 72 75 71 68 88 88 91 76 82 86 86 77 86 91 83 79 94 69 95 104 104 105 117 127 120 115 118 125 114 116 100 109 93 81 103 120 126 130 112 122 117 128 101 104 96 34 90 95 110 145 130 154 149 209 nan nan 35 19
nan nan nan nan nan nan nan nan nan 263 266 264 268 274 272 269 265 261 233 236 205 203 202 224 23 82 82 75 67 71 80 88 78 104 103 96 67 73 80 78 84 90 79 87 49 68 87 98 106 116 116 116 119 112 110 125 133 130 119 96 89 110 91 96 93 102 94 97 107 104 148 123 62 73 26 29 30 48 127 127 194 211 230 255 338
nan nan nan nan nan nan nan nan nan 268 270 258 265 275 268 269 263 244 243 239 231 233 233 230 233 62 82 83 81 106 99 101 120 127 127 125 52 79 82 85 83 90 77 71 62 59 82 91 105 114 115 116 124 114 122 117 126 127 126 119 146 123 88 70 74 98 96 87 129 125 155 98 104 78 25 33 24 0 88 120 146 105 269 148 265
nan nan nan nan nan nan nan nan nan nan 264 256 263 271 270 265 265 254 251 249 246 236 240 239 246 299 269 107 250 181 156 139 138 137 137 140 135 77 96 87 89 113 82 82 96 82 84 85 91 90 100 102 116 115 129 144 137 127 124 108 122 107 104 84 78 95 100 94 82 108 136 72 89 86 75 101 21 347 6 50 357 316 312 35 340
nan nan nan 249 257 268 261 nan nan nan 264 263 268 272 270 270 270 262 253 255 263 254 252 252 238 257 260 307 298 300 193 164 161 157 161 157 170 143 120 89 116 118 92 95 94 93 104 102 101 91 96 107 105 123 125 120 125 120 108 119 124 109 96 111 115 105 107 119 121 118 118 10 356 357 63 2 339 330 330 59 356 333 334 346 26
237 244 241 241 258 nan nan nan nan 277 278 274 275 268 268 268 270 268 250 258 264 260 263 261 246 248 225 289 310 322 307 347 347 8 99 150 159 141 128 158 129 117 117 88 82 71 81 86 95 93 94 93 78 81 98 116 122 129 150 128 111 102 110 118 107 113 110 112 106 100 213 57 347 347 39 317 317 326 338 360 308 9 341 358 24
240 239 247 239 252 262 274 280 258 272 274 273 284 275 271 270 275 275 261 263 269 262 269 267 251 246 215 274 306 318 307 309 310 331 53 296 165 190 161 186 142 121 126 86 78 78 49 61 80 73 98 102 90 83 83 109 116 125 121 115 114 110 98 95 95 97 99 98 93 100 47 36 67 36 19 330 353 337 330 342 10 348 3 15 17
222 242 245 241 250 252 263 270 260 265 273 264 278 276 273 274 271 275 268 259 260 258 271 263 259 246 210 242 262 294 310 305 280 291 82 298 263 216 195 194 135 118 133 112 91 110 43 40 26 27 78 76 78 60 69 86 95 99 115 109 93 100 105 108 93 96 107 101 94 101 100 73 79 57 21 334 13 9 344 355 13 5 356 11 14
218 236 246 241 251 256 254 261 256 265 277 262 271 272 273 277 276 271 269 257 258 258 262 259 261 237 219 243 237 248 298 305 306 302 332 337 295 311 237 204 117 114 114 118 110 130 51 58 323 4 28 35 56 80 31 115 114 117 83 74 85 87 93 97 93 103 110 118 113 88 82 98 80 70 18 11 9 7 359 2 358 300 99 343 350
224 218 242 239 247 257 256 255 255 263 272 266 273 272 271 276 278 274 276 269 255 257 254 262 263 241 229 246 236 236 244 264 293 292 312 291 303 314 358 110 51 94 117 120 112 138 93 86 46 28 14 345 356 22 354 354 78 79 74 63 77 81 39 94 96 131 118 115 114 114 111 80 48 21 4 4 357 17 347 349 328 322 329 354 324
216 215 222 249 254 259 262 266 260 266 267 268 271 270 268 273 273 273 270 265 256 253 251 257 261 257 244 250 240 243 251 257 276 287 288 287 284 322 344 120 204 196 109 120 120 155 113 110 63 45 20 345 351 3 14 0 9 12 28 68 84 131 303 329 82 107 89 129 137 136 76 33 38 10 324 323 353 351 351 325 322 330 324 315 325
211 215 219 227 260 267 265 273 269 270 265 260 275 264 264 267 269 275 271 273 268 257 256 251 260 261 257 258 246 250 252 261 250 264 260 263 270 289 281 239 227 194 184 162 118 148 150 93 81 99 35 13 9 1 2 334 330 3 38 53 66 279 284 260 64 202 167 133 159 150 101 263 226 269 312 333 339 339 328 320 313 316 315 319 328
242 229 228 220 245 265 265 272 266 266 256 257 268 260 264 261 264 273 273 275 277 268 261 253 257 258 260 262 261 253 249 256 254 259 261 253 275 275 287 264 251 226 191 199 226 220 215 85 95 127 92 59 92 306 325 283 284 327 72 58 55 312 313 336 343 257 140 152 131 111 294 241 255 240 242 281 306 316 339 306 310 312 314 310 322
258 245 234 228 231 260 264 268 264 261 253 257 262 260 268 264 264 263 262 265 270 274 267 265 264 261 267 262 258 255 249 252 252 266 262 265 256 262 262 263 262 245 230 215 211 211 214 220 155 155 258 127 169 225 272 271 281 290 226 30 101 295 330 351 338 326 151 155 223 256 269 260 222 232 225 213 232 247 295 313 314 301 285 297 302
258 244 238 230 235 249 258 262 259 255 248 252 253 263 262 261 264 263 266 266 269 270 272 265 267 262 270 274 267 267 255 255 249 264 264 264 248 259 255 257 246 247 239 235 210 209 217 218 218 200 200 201 200 231 244 242 264 261 249 210 174 297 332 351 316 29 198 194 192 232 252 261 249 222 220 204 196 192 225 289 277 284 288 296 301
260 246 237 225 222 220 234 251 255 255 249 252 252 256 261 260 262 261 265 266 266 266 268 263 267 260 271 276 270 270 255 253 246 259 255 253 247 247 247 256 257 252 251 245 233 235 234 235 222 231 222 215 210 235 251 254 252 255 241 248 202 260 303 292 286 272 236 194 219 230 269 272 264 263 239 226 200 197 207 261 255 269 293 311 305
242 242 239 231 221 213 211 207 250 254 250 251 246 252 258 258 261 256 266 266 265 261 266 266 264 260 263 271 269 267 262 253 251 255 258 258 253 248 241 248 260 253 254 252 245 242 250 243 235 235 235 233 255 249 246 256 259 267 270 254 242 282 298 305 279 255 240 214 190 220 245 274 266 272 278 286 262 228 257 286 285 284 292 306 311
228 242 249 244 235 230 229 210 212 248 252 251 245 242 247 253 254 255 264 265 264 252 266 269 261 262 262 267 262 261 267 257 255 251 261 261 261 256 250 243 248 250 253 244 251 248 249 253 251 245 246 258 268 260 251 255 269 273 269 270 247 253 264 271 270 264 274 284 297 261 213 248 261 245 250 277 287 261 258 265 273 273 285 292 314
248 242 252 258 254 248 249 242 235 262 261 252 248 242 240 247 245 250 253 256 253 241 261 267 261 263 261 266 264 260 261 258 254 249 254 258 261 268 261 257 249 244 250 248 244 242 248 253 257 255 257 258 266 274 270 268 270 271 274 269 262 255 260 264 264 259 245 262 289 299 290 257 244 235 220 235 234 210 202 249 268 272 285 292 300
243 234 232 235 231 228 221 221 236 256 260 255 248 244 239 239 240 240 245 245 243 234 259 260 258 253 259 260 264 258 259 260 254 248 250 253 253 259 268 263 260 253 250 254 249 241 247 250 252 251 255 257 258 262 270 269 268 272 281 278 271 269 269 265 262 261 254 254 266 275 269 266 264 271 262 240 234 224 238 254 249 231 227 241 275
248 258 257 256 233 239 218 224 232 243 246 245 239 240 239 237 237 236 239 245 239 229 237 250 249 250 253 257 259 257 258 256 252 248 251 251 255 253 264 270 264 257 253 254 249 248 247 250 251 252 251 254 257 260 263 264 263 263 268 272 268 264 263 267 263 265 271 269 267 268 272 274 272 275 275 273 264 250 246 240 255 249 263 271 258
237 236 231 224 224 219 226 227 229 234 236 234 231 230 228 226 232 235 237 240 240 234 229 230 242 241 242 246 246 245 243 245 251 248 247 247 248 253 255 265 269 268 263 258 254 252 252 253 252 252 250 249 253 256 258 260 261 265 265 264 265 266 265 266 260 250 245 246 254 259 263 272 278 276 276 270 267 264 268 269 270 265 260 264 264
240 236 231 225 223 223 206 208 219 232 234 236 237 241 241 234 223 225 229 232 235 238 236 230 229 234 235 235 235 235 234 235 237 243 246 242 236 240 242 252 269 269 265 262 258 258 257 258 256 257 256 252 258 260 262 263 261 264 263 263 263 263 267 267 263 258 253 251 248 250 257 266 272 281 289 279 272 274 270 272 273 281 279 276 273
230 237 237 237 231 226 214 210 206 211 220 220 219 222 229 233 235 232 231 230 232 234 239 237 236 234 226 217 217 228 236 235 234 234 234 240 240 240 243 242 241 245 252 250 257 257 255 255 257 257 256 254 246 237 220 207 267 264 268 269 263 260 260 266 270 269 266 264 258 252 249 252 255 257 269 292 298 295 294 289 285 278 275 271 270
215 224 233 233 231 224 226 223 219 215 211 208 203 205 210 216 220 224 227 229 232 234 235 236 237 237 239 238 230 220 226 237 238 235 241 244 243 242 246 247 249 249 250 251 250 249 247 245 248 248 245 244 255 265 273 248 211 262 274 273 270 268 268 271 269 270 268 268 266 263 260 254 259 271 265 264 265 275 315 307 293 288 284 276 276
225 218 220 233 230 218 219 228 235 228 224 220 216 214 209 206 212 215 219 224 230 233 234 236 239 240 234 227 228 227 225 238 247 243 241 244 244 244 247 249 251 253 253 254 254 252 252 250 251 252 251 250 251 257 249 238 241 245 242 255 267 266 271 271 271 274 274 272 272 271 268 269 266 267 267 269 270 264 289 302 297 292 292 293 291
237 231 230 233 229 223 216 219 222 222 224 224 224 222 217 217 218 223 227 230 234 235 239 248 250 243 241 234 231 230 224 229 239 243 245 249 249 246 244 246 252 251 252 254 253 250 249 250 252 255 261 259 256 261 255 257 252 250 257 256 248 260 267 267 271 270 267 266 264 264 260 261 267 259 260 260 263 263 262 277 280 282 282 287 291
240 238 232 232 227 223 220 221 223 220 222 225 226 223 220 221 221 219 220 221 223 226 231 240 252 249 244 237 244 244 241 240 240 241 245 249 249 249 248 247 251 251 249 248 250 251 250 249 250 255 262 263 259 253 258 266 266 265 265 264 259 251 253 260 264 263 261 261 260 259 260 259 257 258 258 260 261 259 257 262 265 268 270 271 279
234 234 231 229 233 235 230 225 227 226 224 227 228 231 231 232 233 233 229 225 218 216 220 225 227 239 248 246 241 243 241 241 243 244 248 249 250 251 251 249 248 251 255 255 253 252 252 255 258 258 258 261 259 254 261 263 263 266 270 272 267 262 254 253 255 256 257 261 263 263 263 262 263 262 256 254 259 261 263 265 266 267 270 272 275
229 233 230 228 228 234 237 233 231 237 238 239 241 240 238 238 238 239 238 238 236 229 224 224 231 229 238 242 240 236 234 235 240 241 244 247 248 249 248 247 248 249 251 255 254 254 255 254 255 259 262 263 257 248 250 258 262 260 265 273 275 275 265 256 254 256 257 258 262 263 263 262 261 258 248 246 250 256 258 261 265 267 268 270 270
226 225 225 225 232 238 238 235 234 237 238 239 243 242 237 233 230 230 236 240 241 236 231 228 233 234 235 241 246 245 242 239 239 242 244 245 247 248 251 252 251 249 250 252 254 256 258 260 262 264 266 263 260 252 250 257 262 261 262 269 273 273 269 262 260 260 258 257 259 261 259 259 260 258 252 250 247 251 257 256 257 260 263 263 262
229 nan nan 230 227 229 233 237 243 246 245 243 242 242 239 235 233 238 245 248 244 240 241 239 237 239 238 241 249 253 247 242 240 242 244 246 249 251 253 254 256 256 255 255 254 257 259 263 267 270 270 269 262 254 253 256 260 263 265 262 264 268 268 270 269 265 262 258 253 256 259 258 259 258 254 251 247 256 259 259 258 257 257 259 261
235 nan nan 238 237 236 238 235 233 234 234 239 243 245 245 246 249 254 257 255 252 249 248 250 248 246 248 248 248 249 246 244 245 245 247 252 256 258 256 258 260 257 255 254 254 257 257 259 262 266 270 265 260 257 257 258 258 258 259 260 260 260 266 270 273 270 266 263 258 254 255 258 261 262 259 257 253 256 260 260 261 262 261 261 262
239 239 nan nan nan nan nan 236 234 236 240 240 242 246 249 253 255 257 257 254 252 252 253 252 253 252 248 247 246 248 248 247 246 247 246 250 255 259 264 266 263 263 260 256 253 254 256 261 263 260 256 255 256 254 251 252 258 258 258 258 257 263 268 272 274 274 271 266 263 261 257 257 259 261 263 263 261 257 261 261 261 264 265 265 261
244 239 nan nan nan nan nan nan nan 238 238 239 243 246 248 251 255 256 256 257 255 253 253 254 253 251 248 243 239 240 243 243 245 251 250 245 245 253 256 258 260 260 259 258 257 255 256 254 253 253 253 253 259 260 257 252 251 254 257 259 258 262 266 271 273 272 270 267 264 263 263 262 262 259 259 260 262 258 258 260 261 262 263 261 258
nan 247 242 241 241 nan nan nan 241 239 nan 241 244 246 248 249 251 255 258 256 254 253 253 253 251 249 246 242 239 245 248 246 243 243 247 247 246 247 250 252 255 256 258 257 254 251 251 249 247 247 247 247 254 261 265 260 254 254 256 256 255 255 259 265 272 279 278 271 266 264 264 268 267 263 260 257 257 260 260 260 262 260 252 253 258
nan nan nan nan nan nan nan nan nan 243 243 nan nan 248 249 250 249 247 250 256 256 252 249 251 252 250 248 242 239 240 246 247 242 241 240 238 239 245 247 246 247 250 254 256 256 254 252 251 250 250 nan 250 251 258 262 261 257 255 250 241 240 251 255 267 270 276 279 277 273 266 265 269 263 255 253 254 257 260 261 267 264 258 259 260 260
nan nan nan nan nan nan nan nan nan nan nan nan 247 250 251 251 250 249 249 248 251 254 253 250 247 248 248 244 239 239 239 246 248 nan nan nan nan 238 244 243 246 252 256 nan nan nan nan nan nan nan nan nan nan 254 257 259 258 253 242 234 244 261 270 271 272 266 267 270 271 271 268 263 259 258 254 256 258 263 267 265 262 261 263 266 266
nan nan nan nan nan nan nan nan nan nan nan nan nan nan nan 250 249 249 248 248 248 249 nan 251 251 248 248 246 244 241 nan nan 246 243 nan nan 237 238 241 240 nan 244 254 258 nan 258 257 257 257 nan nan nan nan 248 246 244 243 246 237 237 249 259 264 264 266 263 260 262 265 269 270 261 255 249 251 257 262 264 270 274 274 nan nan 273 272
nan nan nan nan nan nan nan nan nan nan nan nan nan nan nan nan nan nan nan 248 248 249 249 247 249 249 249 248 246 nan nan nan nan nan nan 240 241 238 237 238 242 245 244 248 256 257 nan 257 257 nan nan nan 243 243 245 244 243 242 244 245 253 255 253 253 257 254 246 248 247 245 250 252 251 nan nan nan 261 264 263 nan nan 281 278 nan 273
nan nan nan nan nan nan nan nan nan nan nan nan nan nan nan nan nan nan nan nan nan nan nan nan 246 247 244 246 250 247 243 242 nan nan nan nan 244 245 241 239 240 237 241 nan 245 nan 249 254 256 nan nan nan 246 245 245 245 246 249 252 252 253 251 244 245 247 248 246 250 248 250 nan nan nan nan nan nan nan nan nan nan nan 265 270 nan 271
nan nan nan nan nan nan nan nan nan nan nan nan nan nan nan nan nan nan nan nan nan nan nan nan nan nan nan nan nan nan nan 244 242 nan nan nan nan nan nan nan nan nan 239 nan nan 247 nan nan nan nan nan nan 248 249 249 249 250 252 254 255 256 254 252 253 252 251 251 nan nan nan nan nan nan nan nan nan 259 263 265 264 261 nan nan nan nan
nan nan nan nan nan nan nan nan nan nan nan nan nan nan nan nan nan nan nan nan nan nan nan nan nan nan nan nan nan nan nan nan nan nan nan nan nan nan nan nan nan nan 243 nan nan nan nan nan nan nan nan nan nan 250 252 253 254 255 256 255 255 256 256 nan nan nan nan nan nan nan nan nan nan nan nan 254 260 269 264 nan nan nan nan nan nan
nan nan nan nan nan nan nan nan nan nan nan nan nan nan nan nan nan nan nan nan nan nan nan nan nan nan nan nan nan nan nan nan nan nan nan nan nan nan nan nan nan nan nan nan nan nan nan nan nan nan nan nan nan nan nan nan nan nan nan nan nan nan nan nan nan nan nan nan nan nan nan nan nan nan 267 266 260 266 nan nan nan nan nan nan nan
nan nan nan nan nan nan nan nan nan nan nan nan nan nan nan nan nan nan nan nan nan nan nan nan nan nan nan nan nan nan nan nan nan nan nan nan nan nan nan nan nan nan nan nan nan nan nan nan nan nan nan nan nan nan nan nan nan nan nan nan nan nan nan nan nan nan nan nan nan nan nan nan nan 258 nan nan nan nan nan nan nan nan nan nan nan